CW4517 Weather Reports


Display with metric or nautical units.
time (UTC)temp
F
wind
direction
speed
MPH
gust
MPH
rain 1hr
in
rain 24hr
in
rain mn
in
humidity
%
barometer
mb
20181114010559 23 278 2.0 4.0 0.00 0.00 0.00 64 1028.5
20181114005659 23 277 2.0 4.0 0.00 0.00 0.00 63 1028.3
20181114004759 23 280 2.0 4.0 0.00 0.00 0.00 63 1028.3
20181114003859 24 282 3.0 6.0 0.00 0.00 0.00 63 1028.1
20181114002959 24 281 3.0 5.0 0.00 0.00 0.00 62 1027.9
20181114002059 24 279 3.0 5.0 0.00 0.00 0.00 62 1027.9
20181114001158 24 275 3.0 7.0 0.00 0.00 0.00 62 1027.8
20181114000258 24 282 3.0 7.0 0.00 0.00 0.00 61 1027.8
20181113235358 24 280 3.0 6.0 0.00 0.00 0.00 60 1027.8
20181113234458 24 272 3.0 6.0 0.00 0.00 0.00 60 1027.8
20181113233558 24 271 4.0 8.0 0.00 0.00 0.00 60 1027.8
20181113232658 25 276 4.0 9.0 0.00 0.00 0.00 59 1027.7
20181113231759 25 277 4.0 9.0 0.00 0.00 0.00 58 1027.7
20181113230858 25 271 4.0 8.0 0.00 0.00 0.00 58 1027.6
20181113225958 25 277 4.0 7.0 0.00 0.00 0.00 57 1027.5
20181113225059 25 273 4.0 8.0 0.00 0.00 0.00 56 1027.5
20181113224158 25 270 5.0 9.0 0.00 0.00 0.00 56 1027.6
20181113223258 26 270 5.0 10.0 0.00 0.00 0.00 55 1027.6
20181113222358 26 278 3.0 7.0 0.00 0.00 0.00 55 1027.4
20181113221458 26 288 5.0 10.0 0.00 0.00 0.00 54 1027.4
20181113220558 26 266 4.0 11.0 0.00 0.00 0.00 54 1027.4
20181113215658 27 276 6.0 12.0 0.00 0.00 0.00 52 1027.4
20181113214758 27 266 6.0 11.0 0.00 0.00 0.00 53 1027.4
20181113213858 27 270 6.0 11.0 0.00 0.00 0.00 52 1027.4
20181113212958 27 284 5.0 10.0 0.00 0.00 0.00 51 1027.3
20181113212058 28 279 5.0 10.0 0.00 0.00 0.00 51 1027.3
20181113211158 28 292 5.0 13.0 0.00 0.00 0.00 51 1027.0
20181113210258 28 294 5.0 13.0 0.00 0.00 0.00 51 1027.0
20181113205358 28 304 5.0 10.0 0.00 0.00 0.00 50 1026.8
20181113204458 27 289 6.0 11.0 0.00 0.00 0.00 50 1026.5
20181113203558 27 292 5.0 10.0 0.00 0.00 0.00 50 1026.5
20181113202658 27 281 6.0 12.0 0.00 0.00 0.00 50 1026.6
20181113201758 27 307 5.0 12.0 0.00 0.00 0.00 51 1026.6
20181113200858 27 283 6.0 13.0 0.00 0.00 0.00 51 1026.7
20181113195958 27 287 6.0 12.0 0.00 0.00 0.00 51 1026.7
20181113195058 27 288 5.0 10.0 0.00 0.00 0.00 53 1026.7
20181113194158 27 280 6.0 12.0 0.00 0.00 0.00 50 1026.8
20181113193258 27 317 5.0 10.0 0.00 0.00 0.00 50 1026.8
20181113192358 27 282 5.0 10.0 0.00 0.00 0.00 51 1026.8
20181113191458 27 278 6.0 12.0 0.00 0.00 0.00 53 1026.9
20181113190558 27 276 5.0 10.0 0.00 0.00 0.00 52 1026.9
20181113185658 26 297 5.0 12.0 0.00 0.00 0.00 49 1027.2
20181113184758 26 311 4.0 9.0 0.00 0.00 0.00 53 1027.2
20181113183858 26 293 6.0 12.0 0.00 0.00 0.00 52 1027.4
20181113182958 26 288 4.0 11.0 0.00 0.00 0.00 52 1027.4
20181113182058 26 311 5.0 9.0 0.00 0.00 0.00 52 1027.4
20181113181158 26 274 5.0 14.0 0.00 0.00 0.00 55 1027.5
20181113180258 25 284 6.0 14.0 0.00 0.00 0.00 56 1027.5
20181113175358 26 283 4.0 9.0 0.00 0.00 0.00 56 1027.5
20181113174458 26 319 4.0 10.0 0.00 0.00 0.00 58 1027.5
20181113173558 25 279 6.0 13.0 0.00 0.00 0.00 58 1027.5
20181113172658 25 277 6.0 12.0 0.00 0.00 0.00 57 1027.5
20181113171758 25 292 5.0 12.0 0.00 0.00 0.00 59 1027.5
20181113170858 25 303 5.0 9.0 0.00 0.00 0.00 59 1027.6
20181113165957 25 290 4.0 9.0 0.00 0.00 0.00 59 1027.5
20181113165057 24 297 4.0 9.0 0.00 0.00 0.00 59 1027.5
20181113164157 24 311 5.0 10.0 0.00 0.00 0.00 59 1027.4
20181113163257 24 298 4.0 9.0 0.00 0.00 0.00 60 1027.4
20181113162358 24 323 4.0 10.0 0.00 0.00 0.00 61 1027.4
20181113161457 23 302 5.0 11.0 0.00 0.00 0.00 62 1027.2
20181113160557 23 319 5.0 12.0 0.00 0.00 0.00 61 1027.2
20181113155657 23 323 5.0 11.0 0.00 0.00 0.00 62 1027.1
20181113154757 22 313 5.0 11.0 0.00 0.00 0.00 62 1027.1
20181113153857 21 308 5.0 11.0 0.00 0.00 0.00 63 1026.9
20181113152957 21 309 5.0 11.0 0.00 0.00 0.00 63 1026.9
20181113152057 21 326 6.0 15.0 0.00 0.00 0.00 64 1026.9
20181113151157 21 325 6.0 14.0 0.00 0.00 0.00 64 1026.9
20181113150257 21 317 6.0 12.0 0.00 0.00 0.00 64 1026.9
20181113145357 20 330 6.0 12.0 0.00 0.00 0.00 65 1026.8
20181113144457 20 325 6.0 11.0 0.00 0.00 0.00 66 1026.7
20181113143557 20 327 4.0 11.0 0.00 0.00 0.00 67 1026.7
20181113142657 19 325 5.0 13.0 0.00 0.00 0.00 68 1026.4
20181113141757 19 323 5.0 12.0 0.00 0.00 0.00 69 1026.4
20181113140857 18 306 5.0 11.0 0.00 0.00 0.00 69 1026.3
20181113135957 18 322 5.0 14.0 0.00 0.00 0.00 70 1026.3
20181113135057 18 322 4.0 11.0 0.00 0.00 0.00 71 1026.3
20181113134157 18 319 4.0 11.0 0.00 0.00 0.00 71 1026.2
20181113133257 18 311 4.0 11.0 0.00 0.00 0.00 72 1026.2
20181113132357 18 316 3.0 9.0 0.00 0.00 0.00 72 1026.0
20181113131457 18 315 4.0 10.0 0.00 0.00 0.00 73 1025.9
20181113130557 18 307 3.0 8.0 0.00 0.00 0.00 73 1025.9
20181113125657 18 311 3.0 7.0 0.00 0.00 0.00 73 1025.8
20181113124757 18 317 2.0 6.0 0.00 0.00 0.00 73 1025.8
20181113123857 18 325 4.0 9.0 0.00 0.00 0.00 72 1025.8
20181113122957 18 315 3.0 9.0 0.00 0.00 0.00 72 1025.5
20181113122057 18 316 3.0 9.0 0.00 0.00 0.00 72 1025.5
20181113121157 18 310 4.0 8.0 0.00 0.00 0.00 71 1025.3
20181113120257 18 314 3.0 8.0 0.00 0.00 0.00 71 1025.3
20181113115357 18 316 3.0 7.0 0.00 0.00 0.00 71 1025.3
20181113114457 19 317 5.0 12.0 0.00 0.00 0.00 70 1025.2
20181113113557 19 312 4.0 9.0 0.00 0.00 0.00 70 1025.2
20181113112657 19 302 4.0 10.0 0.00 0.00 0.00 70 1025.1
20181113111757 19 318 4.0 10.0 0.00 0.00 0.00 70 1025.1
20181113110857 20 333 5.0 13.0 0.00 0.00 0.00 70 1025.1
20181113105957 20 324 5.0 12.0 0.00 0.00 0.00 69 1024.9
20181113105057 20 333 5.0 11.0 0.00 0.00 0.00 69 1024.9
20181113104157 20 317 5.0 10.0 0.00 0.00 0.00 72 1024.8
20181113103257 21 309 4.0 10.0 0.00 0.00 0.00 73 1024.8
20181113102356 21 312 3.0 8.0 0.00 0.00 0.00 73 1024.6
20181113101457 21 309 3.0 9.0 0.00 0.00 0.00 73 1024.4
20181113100556 21 309 3.0 8.0 0.00 0.00 0.00 73 1024.4
20181113095656 21 326 3.0 9.0 0.00 0.00 0.00 74 1024.3
20181113094756 21 320 4.0 9.0 0.00 0.00 0.00 74 1024.3
20181113093856 21 317 3.0 8.0 0.00 0.00 0.00 74 1024.3
20181113092956 21 314 3.0 7.0 0.00 0.00 0.00 74 1024.3
20181113092056 21 315 3.0 9.0 0.00 0.00 0.00 74 1024.3
20181113091156 21 309 2.0 7.0 0.00 0.00 0.00 74 1024.3
20181113090256 21 322 2.0 7.0 0.00 0.00 0.00 75 1024.3
20181113085357 21 316 2.0 6.0 0.00 0.00 0.00 74 1024.3
20181113084456 21 323 2.0 5.0 0.00 0.00 0.00 74 1024.4
20181113083556 22 322 2.0 7.0 0.00 0.00 0.00 74 1024.4
20181113082656 22 314 2.0 6.0 0.00 0.00 0.00 74 1024.5
20181113081756 22 308 2.0 6.0 0.00 0.00 0.00 73 1024.5
20181113080856 22 303 2.0 4.0 0.00 0.00 0.00 73 1024.4
20181113075956 22 322 2.0 5.0 0.00 0.00 0.00 72 1024.4
20181113075056 22 327 3.0 7.0 0.00 0.00 0.00 71 1024.3
20181113074156 23 332 3.0 6.0 0.00 0.00 0.00 71 1024.4
20181113073256 23 333 5.0 10.0 0.00 0.00 0.00 70 1024.4
20181113072356 23 337 4.0 11.0 0.00 0.00 0.00 69 1024.2
20181113071456 23 349 4.0 12.0 0.00 0.00 0.00 69 1024.2
20181113070556 23 339 4.0 12.0 0.00 0.00 0.00 69 1024.2
20181113065656 23 341 5.0 11.0 0.00 0.00 0.00 69 1024.2
20181113064756 23 339 4.0 10.0 0.00 0.00 0.00 70 1024.2
20181113063856 24 339 4.0 8.0 0.00 0.00 0.00 69 1024.3
20181113062956 24 339 4.0 9.0 0.00 0.00 0.00 69 1024.4
20181113062056 24 340 4.0 9.0 0.00 0.00 0.00 68 1024.4
20181113061156 24 335 4.0 9.0 0.00 0.00 0.00 68 1024.6
20181113060256 24 335 4.0 8.0 0.00 0.00 0.00 67 1024.6
20181113055356 24 344 5.0 11.0 0.00 0.00 0.00 67 1024.3
20181113054456 25 344 6.0 14.0 0.00 0.00 0.00 67 1024.3
20181113053556 25 347 5.0 14.0 0.00 0.00 0.00 67 1024.3
20181113052656 25 340 6.0 15.0 0.00 0.00 0.00 68 1024.3
20181113051756 26 340 5.0 10.0 0.00 0.00 0.00 70 1024.3
20181113050856 26 334 6.0 12.0 0.00 0.00 0.00 70 1024.4
20181113045956 26 339 6.0 14.0 0.00 0.00 0.00 70 1024.4
20181113045056 26 337 5.0 12.0 0.00 0.00 0.00 71 1024.5
20181113044156 27 335 5.0 12.0 0.00 0.00 0.00 71 1024.4
20181113043256 27 344 5.0 13.0 0.00 0.00 0.00 71 1024.4
20181113042356 27 336 5.0 12.0 0.00 0.00 0.00 72 1024.7
20181113041456 27 332 5.0 12.0 0.00 0.00 0.00 72 1024.6
20181113040556 27 340 4.0 11.0 0.00 0.00 0.00 72 1024.6
20181113035656 27 339 5.0 11.0 0.00 0.00 0.00 72 1024.7
20181113034755 27 341 5.0 10.0 0.00 0.00 0.00 74 1024.7
20181113033855 27 341 5.0 10.0 0.00 0.00 0.00 75 1024.5
20181113032955 27 339 5.0 14.0 0.00 0.00 0.00 75 1024.4
20181113032056 27 349 5.0 12.0 0.00 0.00 0.00 75 1024.4
20181113031155 27 345 6.0 12.0 0.00 0.00 0.00 75 1024.2
20181113030255 27 336 5.0 10.0 0.00 0.00 0.00 76 1024.2
20181113025355 28 334 4.0 10.0 0.00 0.00 0.00 78 1024.2
20181113024455 27 338 4.0 10.0 0.00 0.00 0.00 79 1023.7
20181113023556 27 335 4.0 10.0 0.00 0.00 0.00 79 1023.7
20181113022655 28 341 5.0 11.0 0.00 0.00 0.00 79 1024.0
20181113021756 28 333 3.0 8.0 0.00 0.00 0.00 77 1024.0
20181113020855 28 324 4.0 9.0 0.00 0.00 0.00 78 1023.8
20181113015955 28 337 5.0 11.0 0.00 0.00 0.00 78 1023.8
20181113015055 28 327 4.0 11.0 0.00 0.00 0.00 78 1023.8
20181113014155 28 335 3.0 7.0 0.00 0.00 0.00 78 1023.7
20181113013255 28 341 4.0 11.0 0.00 0.00 0.00 79 1023.7
20181113012355 28 329 4.0 10.0 0.00 0.00 0.00 79 1023.7
20181113011455 29 336 4.0 7.0 0.00 0.00 0.00 79 1023.9